Regional Weather Roundup
Issued by NWS

Home | Current Version | Previous Version | Text Only | Print | Product List | Glossary Off
Versions: 1 2 3 4 5 6 7 8 9 10 11 12 13 14 15 16 17 18 19 20 21 22 23 24 25 26 27 28 29 30 31 32 33 34 35 36 37 38 39 40 41 42 43 44 45 46 47 48 49 50

000
ASUS43 KBIS 022310
RWRND

NORTH DAKOTA REGIONAL WEATHER ROUNDUP
NATIONAL WEATHER SERVICE BISMARCK ND
600 PM CDT SUN AUG 02 2015

NOTE: "FAIR" INDICATES FEW OR NO CLOUDS BELOW 12,000 FEET WITH NO
SIGNIFICANT WEATHER AND/OR OBSTRUCTIONS TO VISIBILITY.


NDZ001>003-009>011-017-030000-
NORTHWEST NORTH DAKOTA

CITY           SKY/WX    TMP DP  RH WIND       PRES   REMARKS
WILLISTON      SUNNY     82  46  28 N10G20    29.98S
MINOT          SUNNY     78  46  32 NW15G21   29.92F
MINOT AFB      SUNNY     82  46  28 NW13G22   29.91F
$$

NDZ018>021-031>035-040>046-030000-
SOUTHWEST NORTH DAKOTA

CITY           SKY/WX    TMP DP  RH WIND       PRES   REMARKS
BISMARCK       SUNNY     80  53  39 NW14G24   29.93S
DICKINSON      SUNNY     81  45  28 N9        29.97S
GARRISON         N/A     76  52  43 NW15      29.95S
HETTINGER ARPT SUNNY     83  47  28 N9        29.99S
$$

NDZ004>008-012>016-024-026-027-054-030000-
NORTHEAST NORTH DAKOTA

CITY           SKY/WX    TMP DP  RH WIND       PRES   REMARKS
GRAND FORKS    MOSUNNY   78  47  33 NW20G25   29.81F
GRND FRKS AFB  MOSUNNY   76  48  37 NW16G24   29.83S
DEVILS LAKE    SUNNY     75  48  38 NW16G25   29.87S
$$

NDZ022-023-025-028>030-036>039-047>053-030000-
SOUTHEAST NORTH DAKOTA

CITY           SKY/WX    TMP DP  RH WIND       PRES   REMARKS
FARGO          SUNNY     78  47  33 NW18G26   29.83S
JAMESTOWN      SUNNY     76  51  41 NW14G21   29.89R
$$



USA.gov is the U.S. government's official web portal to all federal, state and local government web resources and services.